TimeCDT,TemperatureF,Dew PointF,Humidity,Sea Level PressureIn,VisibilityMPH,Wind Direction,Wind SpeedMPH,Gust SpeedMPH,PrecipitationIn,Events,Conditions,WindDirDegrees,DateUTC
12:55 AM,57.0,52.0,83,29.74,10.0,WNW,10.4,-,N/A,,Overcast,300,2013-09-20 05:55:00
1:55 AM,55.9,51.1,84,29.75,10.0,WNW,10.4,17.3,N/A,,Overcast,300,2013-09-20 06:55:00
2:55 AM,55.0,50.0,83,29.75,10.0,NW,10.4,-,N/A,,Overcast,310,2013-09-20 07:55:00
3:29 AM,53.6,50.0,88,29.76,10.0,WNW,9.2,-,N/A,,Overcast,290,2013-09-20 08:29:00
3:46 AM,53.6,48.2,82,29.77,10.0,NW,13.8,-,0.00,,Overcast,310,2013-09-20 08:46:00
3:55 AM,53.1,48.9,86,29.76,10.0,NW,11.5,-,0.00,,Overcast,310,2013-09-20 08:55:00
4:55 AM,53.1,48.0,83,29.75,10.0,NW,11.5,17.3,N/A,,Overcast,320,2013-09-20 09:55:00
5:55 AM,52.0,46.0,80,29.78,10.0,NNW,10.4,-,N/A,,Overcast,330,2013-09-20 10:55:00
6:55 AM,51.1,46.0,83,29.78,10.0,WNW,8.1,-,N/A,,Overcast,300,2013-09-20 11:55:00
7:55 AM,51.1,46.0,83,29.79,10.0,WNW,9.2,-,N/A,,Overcast,300,2013-09-20 12:55:00
8:02 AM,51.8,44.6,76,29.78,10.0,WNW,10.4,17.3,N/A,,Overcast,300,2013-09-20 13:02:00
8:27 AM,51.8,46.4,82,29.78,10.0,North,-9999.0,-,N/A,,Overcast,0,2013-09-20 13:27:00
8:55 AM,51.1,46.0,83,29.81,10.0,WNW,9.2,-,N/A,,Overcast,300,2013-09-20 13:55:00
9:55 AM,51.1,44.1,77,29.83,10.0,NW,9.2,-,N/A,,Overcast,320,2013-09-20 14:55:00
10:55 AM,50.0,45.0,83,29.84,10.0,NNW,13.8,-,N/A,,Overcast,330,2013-09-20 15:55:00
11:55 AM,51.1,44.1,77,29.83,10.0,WNW,10.4,18.4,N/A,,Overcast,300,2013-09-20 16:55:00
12:40 PM,53.6,44.6,72,29.81,10.0,WNW,12.7,-,N/A,,Overcast,300,2013-09-20 17:40:00
12:51 PM,53.6,44.6,72,29.81,10.0,WNW,10.4,-,N/A,,Overcast,300,2013-09-20 17:51:00
12:55 PM,53.1,44.1,71,29.82,10.0,WNW,11.5,-,N/A,,Overcast,290,2013-09-20 17:55:00
1:26 PM,55.4,44.6,67,29.80,10.0,NW,16.1,21.9,N/A,,Overcast,310,2013-09-20 18:26:00
1:55 PM,57.0,45.0,64,29.81,10.0,WNW,13.8,-,N/A,,Overcast,300,2013-09-20 18:55:00
2:55 PM,52.0,46.9,83,29.82,10.0,West,9.2,-,0.00,Rain,Light Rain,270,2013-09-20 19:55:00
3:16 PM,53.6,46.4,77,29.81,10.0,WNW,15.0,21.9,0.00,,Mostly Cloudy,290,2013-09-20 20:16:00
3:35 PM,51.8,48.2,88,29.81,6.0,WNW,12.7,20.7,0.00,Rain,Light Rain,300,2013-09-20 20:35:00
3:55 PM,51.1,48.0,89,29.83,7.0,NW,12.7,-,0.00,Rain,Light Rain,310,2013-09-20 20:55:00
4:55 PM,53.1,46.9,80,29.82,10.0,WNW,15.0,21.9,0.01,,Mostly Cloudy,290,2013-09-20 21:55:00
5:55 PM,52.0,46.0,80,29.84,9.0,WNW,12.7,-,N/A,,Overcast,300,2013-09-20 22:55:00
6:29 PM,50.0,44.6,82,29.82,10.0,WNW,13.8,-,0.00,,Overcast,300,2013-09-20 23:29:00
6:55 PM,48.9,46.0,90,29.85,10.0,WNW,6.9,-,0.00,,Overcast,290,2013-09-20 23:55:00
7:35 PM,48.2,46.4,93,29.84,10.0,WNW,8.1,-,N/A,,Overcast,290,2013-09-21 00:35:00
7:55 PM,48.0,45.0,89,29.87,6.0,WNW,11.5,23.0,0.00,Rain,Light Rain,300,2013-09-21 00:55:00
8:04 PM,48.2,44.6,87,29.85,9.0,WNW,12.7,19.6,0.01,Rain,Light Rain,290,2013-09-21 01:04:00
8:29 PM,48.2,46.4,93,29.85,10.0,West,9.2,-,0.01,,Overcast,280,2013-09-21 01:29:00
8:43 PM,48.2,44.6,87,29.86,4.0,WNW,11.5,17.3,0.02,Rain,Rain,300,2013-09-21 01:43:00
8:55 PM,46.9,45.0,93,29.89,10.0,WNW,8.1,-,0.02,,Overcast,290,2013-09-21 01:55:00
9:55 PM,46.9,43.0,86,29.90,10.0,West,6.9,-,N/A,,Overcast,280,2013-09-21 02:55:00
10:55 PM,46.0,43.0,89,29.90,10.0,West,5.8,-,N/A,,Overcast,280,2013-09-21 03:55:00
11:53 PM,46.4,41.0,81,29.89,10.0,NNW,11.5,-,0.00,Rain,Light Rain,340,2013-09-21 04:53:00
11:55 PM,46.0,41.0,83,29.91,10.0,NNW,10.4,-,0.00,Rain,Light Rain,340,2013-09-21 04:55:00